Tracking 27428 objects as of 31-May-2023
HD Live streaming from Space Station
objects crossing your sky now

STARLINK-4703

Track STARLINK-4703 now!
10-day predictions
STARLINK-4703 is classified as:


NORAD ID: 53855
Int'l Code: 2022-114AP
Perigee: 546.1 km
Apogee: 547.7 km
Inclination: 53.2 °
Period: 95.4 minutes
Semi major axis: 6917 km
RCS: Unknown
Launch date: September 19, 2022
Source: United States (US)
Launch site: AIR FORCE EASTERN TEST RANGE (AFETR)
Your satellite tracking list
Your tracking list is empty




NASA's NSSDC Master Catalog

Two Line Element Set (TLE):
1 53855U 22114AP  23150.34505652  .00000018  00000-0  19192-4 0  9992
2 53855  53.2153 167.4329 0001104  94.8459 265.2660 15.08834690 39849
Source of the keplerian elements: AFSPC